[[{"header":{"parameterUnit":"m.s-1","parameterCategory":1,"la1":30.2991,"la2":30.254,"lo1":-89.0895,"lo2":-89.0444,"dy":0.0017,"dx":0.0017,"nx":28,"ny":28,"refTime":"2025-01-10T03:00:00:Z","depth":0,"parameterNumber":2,"parameterNumberName":"U-component_of_WINDS"},"data":[0,0,0,0,0,0,0,0,0,0,0,0,0,0,0,0,0,0,0,0,0,0,0,0,0,0,0,0,0,0,0,0,0,0,0,0,0,0,0,0,0,0,0,0,0,0,0,0,0,0,0,0,0,0,0,0,0,0,-9.3935,-9.3936,0,-9.3978,-9.3978,-9.3979,-9.3823,-9.3818,-9.3813,-9.3809,-9.385,-9.3855,-9.386,0,0,0,0,0,0,0,0,0,0,0,0,0,-9.3716,-9.3721,-9.3935,-9.3936,-9.3936,-9.3978,-9.3978,-9.3979,-9.3823,-9.3818,-9.3812,-9.3807,-9.3848,-9.3854,-9.3861,0,0,0,0,0,0,0,0,0,0,0,0,0,-9.379,-9.3723,-9.3935,-9.3864,-9.3858,-9.3978,-9.3978,-9.3979,-9.3825,-9.3818,-9.3811,-9.3804,-9.3846,-9.3854,-9.3862,-9.4052,0,0,-9.3887,-9.389,0,0,0,0,0,0,0,0,-9.3786,-9.3799,-9.3874,-9.3869,-9.3862,-9.3888,-9.3916,-9.4003,-9.3826,-9.3837,-9.3809,-9.3801,-9.3868,-9.3874,-9.3897,-9.4054,-9.4055,-9.3887,-9.3892,-9.3896,-9.3898,0,0,0,0,0,0,0,-9.3781,-9.3796,-9.3952,-9.3875,-9.3868,-9.3829,-9.3832,-9.3932,-9.3891,-9.3836,-9.3824,-9.3832,-9.3863,-9.389,-9.3897,-9.4056,-9.3887,-9.3894,-9.3899,-9.3903,-9.4369,-9.4376,0,0,0,0,0,0,-9.3786,-9.3793,-9.395,-9.3953,-9.3807,-9.3838,-9.3841,-9.3887,-9.389,-9.3883,-9.3838,-9.3824,-9.3879,-9.3888,-9.3898,-9.4118,-9.3896,-9.3903,-9.3908,-9.4362,-9.4371,-9.4379,0,0,0,0,0,0,-9.3782,-9.3802,-9.3949,-9.387,-9.3886,-9.385,-9.3902,-9.3891,-9.3917,-9.3891,-9.3883,-9.3872,-9.3874,-9.3886,-9.4014,-9.4117,-9.3907,-9.3914,-9.4353,-9.4364,-9.4375,-9.4561,0,0,0,0,0,0,-9.3776,-9.3801,-9.3873,-9.3873,-9.3891,-9.4066,-9.3908,-9.3897,-9.3932,-9.3915,-9.3921,-9.3915,-9.3869,-9.4003,-9.4023,-9.4124,-9.3921,-9.4343,-9.4358,-9.4371,-9.4545,-9.4577,-9.4605,0,0,0,0,0,-9.3769,-9.3923,-9.3878,-9.3897,-9.398,-9.4072,-9.4082,-9.4027,-9.3941,-9.4012,-9.3996,-9.3915,-9.4104,-9.4018,-9.4038,-9.4144,-9.4336,-9.4354,-9.437,-9.4532,-9.4571,-9.4604,0,0,0,0,0,0,-9.3935,-9.3922,-9.3871,-9.403,-9.4054,-9.4045,-9.4133,-9.407,-9.4117,-9.4099,-9.4028,-9.4031,-9.4171,-9.4171,-9.4075,-9.4327,-9.4205,-9.4227,-9.4321,-9.4358,-9.4387,-9.4382,-9.3928,0,0,0,0,0,-9.3991,-9.4067,-9.4052,-9.4193,-9.4208,-9.417,-9.4208,-9.4164,-9.4185,-9.4193,-9.4186,-9.4209,-9.4273,-9.4316,-9.4374,-9.4547,-9.4544,-9.463,-9.4659,-9.4684,-9.4702,-9.4791,-9.4828,-9.4434,-9.4434,-9.4434,0,0,-9.4105,-9.4107,-9.416,-9.4227,-9.424,-9.4319,-9.4179,-9.4269,-9.4327,-9.4206,-9.4326,-9.4323,-9.4343,-9.4494,-9.456,-9.4498,-9.4811,-9.4705,-9.4725,-9.4729,-9.4812,-9.4849,-9.4883,-9.4446,-9.4444,-9.4442,0,0,-9.4353,-9.4364,-9.4482,-9.4499,-9.4521,-9.4495,-9.4524,-9.4527,-9.452,-9.464,-9.4551,-9.4619,-9.4732,-9.4749,-9.4773,-9.5032,-9.4959,-9.5054,-9.5206,-9.5294,-9.5324,-9.5351,-9.544,-9.5474,-9.5073,-9.5073,-9.5074,0,-9.4491,-9.4608,-9.4551,-9.4648,-9.4679,-9.4577,-9.4695,-9.4714,-9.4754,-9.4777,-9.4708,-9.4847,-9.4854,-9.5007,-9.507,-9.5095,-9.5123,-9.505,-9.5325,-9.5352,-9.5376,-9.546,-9.5494,-9.5084,-9.5083,-9.5082,-9.5081,0,-9.4776,-9.4859,-9.4952,-9.4994,-9.5037,-9.5144,-9.5102,-9.5152,-9.5107,-9.5088,-9.5211,-9.5217,-9.5273,-9.5307,-9.5262,-9.5454,-9.5414,-9.5337,-9.5212,-9.5425,-9.5503,-9.5535,-9.51,-9.5096,-9.5093,-9.509,0,0,-9.5124,-9.5136,-9.517,-9.5188,-9.5207,-9.5269,-9.5373,-9.5429,-9.5472,-9.5505,-9.5587,-9.5687,-9.5616,-9.5643,-9.56,-9.5679,-9.5879,-9.5591,-9.559,-9.5641,-9.6087,-9.6142,-9.618,-9.5834,-9.584,-9.5844,-9.6084,0,-9.5364,-9.554,-9.5493,-9.5668,-9.5743,-9.5649,-9.5739,-9.576,-9.5747,-9.5808,-9.5792,-9.5862,-9.5765,-9.5781,-9.5854,-9.584,-9.5967,-9.5822,-9.5907,-9.591,-9.5899,-9.6221,-9.6278,-9.6504,-9.6114,-9.612,-9.6123,0,-9.5666,-9.5712,-9.5895,-9.5902,-9.5931,-9.6013,-9.606,-9.6122,-9.6144,-9.6128,-9.6161,-9.6103,-9.6204,-9.6083,-9.6219,-9.6122,-9.6155,-9.6153,-9.6161,-9.6162,-9.6026,-9.6226,-9.6575,-9.6607,-9.6171,-9.6167,-9.6164,0,-9.5897,-9.6004,-9.6127,-9.6146,-9.6158,-9.6217,-9.6224,-9.624,-9.6277,-9.632,-9.6343,-9.6397,-9.6426,-9.6469,-9.6427,-9.6343,-9.6569,-9.6445,-9.6556,-9.6557,-9.6603,-9.66,-9.6957,-9.6634,-9.6633,-9.6633,-9.6632,0,-9.6167,-9.6281,-9.623,-9.6305,-9.6431,-9.6377,-9.6503,-9.65,-9.6515,-9.6587,-9.6511,-9.658,-9.6523,-9.6587,-9.6555,-9.6671,-9.6686,-9.6675,-9.6664,-9.6678,-9.6679,-9.6694,-9.6676,-9.6642,-9.664,-9.6638,-9.6636,0,-9.6442,-9.6413,-9.654,-9.6543,-9.6546,-9.6638,-9.6639,-9.6708,-9.6691,-9.6784,-9.6802,-9.6775,-9.6846,-9.6811,-9.6885,-9.6864,-9.7013,-9.6984,-9.7005,-9.6995,-9.7107,-9.7095,-9.7482,-9.7528,-9.7181,-9.7184,-9.7187,0,-9.6613,-9.6699,-9.6712,-9.6755,-9.6768,-9.684,-9.6878,-9.6829,-9.6872,-9.6905,-9.697,-9.7036,-9.7084,-9.7204,-9.7189,-9.7246,-9.7214,-9.7346,-9.7222,-9.7233,-9.7211,-9.7204,-9.7211,-9.7369,-9.7373,-9.7377,-9.7379,0,-9.6919,-9.6901,-9.6959,-9.7014,-9.7062,-9.7102,-9.7136,-9.7176,-9.7128,-9.718,-9.7253,-9.7292,-9.7369,-9.7434,-9.7484,-9.749,-9.7426,-9.742,-9.7448,-9.746,-9.7467,-9.7461,-9.7067,-9.7409,-9.7406,-9.7404,-9.7403,-9.7401,-9.7144,-9.7215,-9.7235,-9.7303,-9.7324,-9.7358,-9.7423,-9.7415,-9.7475,-9.7534,-9.7503,-9.7588,-9.7609,-9.7669,-9.7685,-9.7749,-9.7696,-9.7738,-9.7747,-9.7757,-9.777,-9.7463,-9.7759,-9.7758,-9.7757,-9.7757,-9.7756,0,-9.7441,-9.7451,-9.7514,-9.7564,-9.7618,-9.7557,-9.7592,-9.764,-9.7716,-9.7742,-9.7792,-9.7876,-9.794,-9.7933,-9.7991,-9.8044,-9.8016,-9.806,-9.8053,-9.8055,-9.7816,-9.7784,-9.8082,-9.8082,-9.8082,-9.8082,-9.8082,-9.8082,-9.7602,-9.7719,-9.7704,-9.7831,-9.784,-9.7923,-9.7947,-9.7978,-9.7998,-9.8095,-9.8148,-9.8144,-9.8157,-9.8215,-9.8271,-9.8267,-9.829,-9.8344,-9.8329,-9.8105,-9.8072,-9.8041,-9.801,-9.8351,-9.8351,-9.8562,-9.8564,-9.8565]},{"header":{"parameterUnit":"m.s-1","parameterCategory":1,"la1":30.2991,"la2":30.254,"lo1":-89.0895,"lo2":-89.0444,"dy":0.0017,"dx":0.0017,"nx":28,"ny":28,"refTime":"2025-01-10T03:00:00:Z","depth":0,"parameterNumber":3,"parameterNumberName":"V-component_of_WINDS"},"data":[0,0,0,0,0,0,0,0,0,0,0,0,0,0,0,0,0,0,0,0,0,0,0,0,0,0,0,0,0,0,0,0,0,0,0,0,0,0,0,0,0,0,0,0,0,0,0,0,0,0,0,0,0,0,0,0,0,0,2.7376,2.7377,0,2.7474,2.7475,2.7476,2.7359,2.7355,2.735,2.7346,2.7453,2.746,2.7467,0,0,0,0,0,0,0,0,0,0,0,0,0,2.7096,2.7102,2.7376,2.7377,2.7378,2.7474,2.7475,2.7477,2.736,2.7355,2.7349,2.7344,2.7451,2.7459,2.7468,0,0,0,0,0,0,0,0,0,0,0,0,0,2.7209,2.7104,2.7376,2.7331,2.7328,2.7474,2.7475,2.7477,2.7361,2.7354,2.7348,2.7342,2.7448,2.7458,2.7469,2.7664,0,0,2.75,2.7505,0,0,0,0,0,0,0,0,2.7202,2.7219,2.7337,2.7335,2.7332,2.7397,2.7416,2.754,2.7363,2.7349,2.7346,2.7339,2.7441,2.7451,2.7484,2.7669,2.7674,2.7501,2.7508,2.7512,2.7515,0,0,0,0,0,0,0,2.7195,2.7214,2.7415,2.7339,2.7336,2.731,2.7318,2.7439,2.7431,2.735,2.7341,2.7354,2.7438,2.7474,2.7486,2.7675,2.7501,2.751,2.7517,2.7521,2.8032,2.8039,0,0,0,0,0,0,2.7191,2.7208,2.7412,2.7418,2.7249,2.732,2.733,2.7383,2.7429,2.7429,2.736,2.7348,2.746,2.7474,2.7489,2.7726,2.7512,2.7522,2.7528,2.8025,2.8034,2.8042,0,0,0,0,0,0,2.7185,2.721,2.7408,2.7311,2.7334,2.7332,2.7393,2.7389,2.7425,2.7436,2.7435,2.7398,2.7455,2.7475,2.7622,2.7728,2.7526,2.7536,2.8016,2.8028,2.8038,2.8197,0,0,0,0,0,0,2.7178,2.7209,2.7281,2.7313,2.734,2.7537,2.7399,2.7395,2.7442,2.7428,2.7472,2.7473,2.7452,2.7608,2.7633,2.7738,2.7544,2.8007,2.8021,2.8034,2.8183,2.8213,2.8238,0,0,0,0,0,2.7168,2.7322,2.7285,2.731,2.7429,2.7543,2.7559,2.7529,2.7451,2.7526,2.7534,2.7472,2.7711,2.7624,2.7651,2.7761,2.8,2.8017,2.8033,2.8171,2.8207,2.8237,0,0,0,0,0,0,2.7303,2.7325,2.7284,2.7452,2.7497,2.7523,2.7616,2.7568,2.7636,2.7621,2.7583,2.7594,2.7753,2.7771,2.7673,2.7956,2.7843,2.7866,2.7938,2.7973,2.8,2.7994,2.7553,0,0,0,0,0,2.7352,2.744,2.7455,2.7603,2.7627,2.7618,2.7666,2.764,2.7685,2.7704,2.7723,2.7771,2.7858,2.7916,2.7995,2.8184,2.8195,2.8274,2.8301,2.8324,2.8345,2.8453,2.8489,2.8096,2.8096,2.8096,0,0,2.7454,2.7477,2.7536,2.763,2.7661,2.7758,2.7634,2.774,2.7812,2.7721,2.7862,2.7878,2.793,2.8101,2.8177,2.8121,2.8456,2.8345,2.8363,2.8372,2.8473,2.8511,2.8544,2.8107,2.8105,2.8104,0,0,2.7691,2.7715,2.7843,2.7877,2.7926,2.7919,2.7951,2.7985,2.7992,2.8133,2.8068,2.8155,2.8303,2.8345,2.8385,2.8643,2.859,2.867,2.8815,2.892,2.8951,2.8978,2.9075,2.911,2.869,2.869,2.8691,0,2.7813,2.7953,2.7915,2.8027,2.8073,2.7993,2.8125,2.8161,2.8234,2.827,2.8205,2.8394,2.8422,2.8605,2.8668,2.8701,2.874,2.8666,2.8949,2.8976,2.9001,2.9094,2.913,2.87,2.8699,2.8698,2.8697,0,2.8103,2.8202,2.8299,2.8372,2.8429,2.855,2.8535,2.8597,2.8567,2.8569,2.8717,2.8749,2.8837,2.8877,2.8848,2.9057,2.9022,2.8954,2.8841,2.9049,2.9136,2.917,2.8714,2.8711,2.8708,2.8705,0,0,2.8428,2.848,2.8517,2.8551,2.8601,2.8678,2.8797,2.8882,2.8939,2.8993,2.9096,2.9225,2.9164,2.9211,2.9186,2.9277,2.9486,2.9199,2.92,2.9256,2.9726,2.978,2.9821,2.9451,2.9457,2.9462,2.9723,0,2.8669,2.8874,2.8846,2.9045,2.9139,2.9066,2.9172,2.9216,2.9222,2.9304,2.9311,2.9406,2.9315,2.9343,2.943,2.9442,2.9581,2.9423,2.9551,2.9556,2.9545,2.9865,2.9921,3.0166,2.9756,2.9762,2.9766,0,2.8977,2.9043,2.9252,2.9291,2.933,2.9424,2.9503,2.9581,2.9631,2.963,2.9683,2.9644,2.9769,2.9651,2.9825,2.9719,2.977,2.9784,2.9793,2.9807,2.9676,2.9893,3.0242,3.0281,2.9817,2.9813,2.981,0,2.92,2.934,2.9484,2.9515,2.9563,2.9633,2.9657,2.97,2.9755,2.9824,2.986,2.9943,2.9989,3.0056,3.0042,2.9957,3.0223,3.0102,3.0229,3.0231,3.0291,3.0289,3.0659,3.0317,3.0317,3.0316,3.0315,0,2.9474,2.9607,2.9585,2.9675,2.9822,2.979,2.9938,2.9953,2.9993,3.0087,3.0029,3.0119,3.0093,3.0183,3.0173,3.0323,3.0343,3.0348,3.0345,3.0356,3.0356,3.0392,3.0376,3.0325,3.0323,3.0321,3.032,0,2.9749,2.9739,2.9893,2.9926,2.9938,3.0046,3.0077,3.0163,3.0164,3.0285,3.0311,3.0315,3.0419,3.0411,3.0527,3.052,3.0707,3.0681,3.0691,3.0687,3.0816,3.0806,3.1226,3.1282,3.0899,3.0903,3.0906,0,2.9926,3.0027,3.0072,3.013,3.0159,3.0253,3.0308,3.0282,3.0343,3.041,3.049,3.0588,3.0666,3.0836,3.0851,3.0942,3.0921,3.1062,3.0934,3.0944,3.093,3.0926,3.0938,3.1088,3.1093,3.1096,3.1099,0,3.0246,3.0237,3.0318,3.04,3.0467,3.053,3.0588,3.0639,3.0619,3.0691,3.0796,3.0857,3.0977,3.1077,3.1164,3.1192,3.1146,3.1139,3.1174,3.1189,3.1192,3.1197,3.0764,3.113,3.1127,3.1124,3.1123,3.1122,3.048,3.0568,3.0615,3.0709,3.0749,3.0805,3.0889,3.0902,3.0988,3.1083,3.1063,3.1183,3.1236,3.1347,3.1384,3.1481,3.143,3.148,3.1493,3.1507,3.1525,3.1173,3.1496,3.1495,3.1494,3.1493,3.1492,0,3.0801,3.0828,3.0914,3.0997,3.1073,3.1018,3.108,3.1148,3.1254,3.1306,3.1384,3.1508,3.1606,3.163,3.1725,3.1798,3.178,3.1825,3.1821,3.183,3.1561,3.1524,3.1839,3.1839,3.1838,3.1838,3.1838,3.1838,3.0977,3.1124,3.1122,3.129,3.1316,3.1433,3.1474,3.1527,3.1569,3.1709,3.179,3.1804,3.1847,3.1946,3.2035,3.204,3.2081,3.2136,3.2133,3.1882,3.1848,3.1815,3.178,3.2143,3.2144,3.2394,3.2396,3.2398]}]]